Time,TemperatureF,DewpointF,PressureIn,WindDirection,WindDirectionDegrees,WindSpeedMPH,WindSpeedGustMPH,Humidity,HourlyPrecipIn,Conditions,Clouds,dailyrainin,SoftwareType,DateUTC
2013-07-09 00:01:00,67.3,64.9,30.07,ESE,113,0.0,0.0,92,0.00,,---,0.00,VWS V14.01,2013-07-09 04:01:00,
2013-07-09 00:02:00,67.3,64.9,30.07,ESE,113,0.0,0.0,92,0.00,,---,0.00,VWS V14.01,2013-07-09 04:02:00,
2013-07-09 00:07:00,67.1,64.7,30.07,ESE,113,0.0,0.0,92,0.00,,---,0.00,VWS V14.01,2013-07-09 04:07:00,
2013-07-09 00:12:00,66.9,64.5,30.06,ESE,113,0.0,0.0,92,0.00,,---,0.00,VWS V14.01,2013-07-09 04:12:00,
2013-07-09 00:17:00,66.9,64.5,30.06,ESE,113,0.0,0.0,92,0.00,,---,0.00,VWS V14.01,2013-07-09 04:17:00,
2013-07-09 00:22:00,66.8,64.4,30.06,ESE,113,0.0,0.0,92,0.00,,---,0.00,VWS V14.01,2013-07-09 04:22:00,
2013-07-09 00:27:00,66.6,64.2,30.06,ESE,113,0.0,0.0,92,0.00,,---,0.00,VWS V14.01,2013-07-09 04:27:00,
2013-07-09 00:32:00,66.6,64.2,30.06,ESE,113,0.0,0.0,92,0.00,,---,0.00,VWS V14.01,2013-07-09 04:32:00,
2013-07-09 00:37:00,66.4,64.0,30.06,ESE,113,0.0,0.0,92,0.00,,---,0.00,VWS V14.01,2013-07-09 04:37:00,
2013-07-09 00:42:00,66.4,64.0,30.08,ESE,113,0.0,0.0,92,0.00,,---,0.00,VWS V14.01,2013-07-09 04:42:00,
2013-07-09 00:47:00,66.4,64.3,30.08,ESE,113,0.0,0.0,93,0.00,,---,0.00,VWS V14.01,2013-07-09 04:47:00,
2013-07-09 00:52:00,66.3,64.2,30.08,ESE,113,0.0,0.0,93,0.00,,---,0.00,VWS V14.01,2013-07-09 04:52:00,
2013-07-09 00:57:00,66.3,64.2,30.09,ESE,113,0.0,0.0,93,0.00,,---,0.00,VWS V14.01,2013-07-09 04:57:00,
2013-07-09 01:02:00,66.3,64.2,30.09,ESE,113,0.0,0.0,93,0.00,,---,0.00,VWS V14.01,2013-07-09 05:02:00,
2013-07-09 01:07:00,66.3,64.2,30.09,ESE,113,0.0,0.0,93,0.00,,---,0.00,VWS V14.01,2013-07-09 05:07:00,
2013-07-09 01:12:00,66.1,64.0,30.07,ESE,113,0.0,0.0,93,0.00,,---,0.00,VWS V14.01,2013-07-09 05:12:00,
2013-07-09 01:17:00,66.1,64.0,30.07,ESE,113,0.0,0.0,93,0.00,,---,0.00,VWS V14.01,2013-07-09 05:17:00,
2013-07-09 01:22:00,66.1,64.0,30.07,ESE,113,0.0,0.0,93,0.00,,---,0.00,VWS V14.01,2013-07-09 05:22:00,
2013-07-09 01:27:00,66.0,63.9,30.07,ESE,113,0.0,0.0,93,0.00,,---,0.00,VWS V14.01,2013-07-09 05:27:00,
2013-07-09 01:32:00,66.0,63.9,30.07,ESE,113,0.0,0.0,93,0.00,,---,0.00,VWS V14.01,2013-07-09 05:32:00,
2013-07-09 01:37:00,66.0,63.9,30.07,ESE,113,0.0,0.0,93,0.00,,---,0.00,VWS V14.01,2013-07-09 05:37:00,
2013-07-09 01:42:00,66.0,63.9,30.06,ESE,113,0.0,0.0,93,0.00,,---,0.00,VWS V14.01,2013-07-09 05:42:00,
2013-07-09 01:47:00,66.0,64.2,30.06,ESE,113,0.0,0.0,94,0.00,,---,0.00,VWS V14.01,2013-07-09 05:47:00,
2013-07-09 01:52:00,65.8,64.0,30.06,ESE,113,0.0,0.0,94,0.00,,---,0.00,VWS V14.01,2013-07-09 05:52:00,
2013-07-09 01:57:00,65.8,64.0,30.05,ESE,113,0.0,0.0,94,0.00,,---,0.00,VWS V14.01,2013-07-09 05:57:00,
2013-07-09 02:02:00,65.8,64.0,30.05,ESE,113,0.0,0.0,94,0.00,,---,0.00,VWS V14.01,2013-07-09 06:02:00,
2013-07-09 02:07:00,65.6,63.8,30.05,ESE,113,0.0,0.0,94,0.00,,---,0.00,VWS V14.01,2013-07-09 06:07:00,
2013-07-09 02:12:00,65.6,63.8,30.05,ESE,113,0.0,0.0,94,0.00,,---,0.00,VWS V14.01,2013-07-09 06:12:00,
2013-07-09 02:17:00,65.6,63.8,30.05,ESE,113,0.0,0.0,94,0.00,,---,0.00,VWS V14.01,2013-07-09 06:17:00,
2013-07-09 02:22:00,65.5,63.7,30.05,ESE,113,0.0,0.0,94,0.00,,---,0.00,VWS V14.01,2013-07-09 06:22:00,
2013-07-09 02:27:00,65.5,63.7,30.04,ESE,113,0.0,0.0,94,0.00,,---,0.00,VWS V14.01,2013-07-09 06:27:00,
2013-07-09 02:32:00,65.6,63.8,30.04,ESE,113,0.0,0.0,94,0.00,,---,0.00,VWS V14.01,2013-07-09 06:32:00,
2013-07-09 02:37:00,65.6,63.8,30.04,ESE,113,0.0,0.0,94,0.00,,---,0.00,VWS V14.01,2013-07-09 06:37:00,
2013-07-09 02:42:00,65.6,63.8,30.04,ESE,113,0.0,0.0,94,0.00,,---,0.00,VWS V14.01,2013-07-09 06:42:00,
2013-07-09 02:47:00,65.6,63.8,30.04,ESE,113,0.0,0.0,94,0.00,,---,0.00,VWS V14.01,2013-07-09 06:47:00,
2013-07-09 02:52:00,65.6,63.8,30.04,ESE,113,0.0,0.0,94,0.00,,---,0.00,VWS V14.01,2013-07-09 06:52:00,
2013-07-09 02:57:00,65.6,63.8,30.04,ESE,113,0.0,0.0,94,0.00,,---,0.00,VWS V14.01,2013-07-09 06:57:00,
2013-07-09 03:02:00,65.6,63.8,30.04,ESE,113,0.0,0.0,94,0.00,,---,0.00,VWS V14.01,2013-07-09 07:02:00,
2013-07-09 03:07:00,65.6,63.8,30.04,ESE,113,0.0,0.0,94,0.00,,---,0.00,VWS V14.01,2013-07-09 07:07:00,
2013-07-09 03:12:00,65.8,64.3,30.04,ESE,113,0.0,0.0,95,0.00,,---,0.00,VWS V14.01,2013-07-09 07:12:00,
2013-07-09 03:17:00,65.8,64.3,30.04,ESE,113,0.0,0.0,95,0.00,,---,0.00,VWS V14.01,2013-07-09 07:17:00,
2013-07-09 03:22:00,65.8,64.3,30.04,ESE,113,0.0,0.0,95,0.00,,---,0.00,VWS V14.01,2013-07-09 07:22:00,
2013-07-09 03:27:00,66.0,64.5,30.04,ESE,113,0.0,0.0,95,0.00,,---,0.00,VWS V14.01,2013-07-09 07:27:00,
2013-07-09 03:32:00,66.1,64.6,30.04,ESE,113,0.0,0.0,95,0.00,,---,0.00,VWS V14.01,2013-07-09 07:32:00,
2013-07-09 03:37:00,66.3,64.8,30.04,ESE,113,0.0,0.0,95,0.00,,---,0.00,VWS V14.01,2013-07-09 07:37:00,
2013-07-09 03:42:00,66.3,64.8,30.04,ESE,113,0.0,0.0,95,0.00,,---,0.00,VWS V14.01,2013-07-09 07:42:00,
2013-07-09 03:47:00,66.3,64.8,30.04,ESE,113,0.0,0.0,95,0.00,,---,0.00,VWS V14.01,2013-07-09 07:47:00,
2013-07-09 03:52:00,66.3,64.8,30.04,ESE,113,0.0,0.0,95,0.00,,---,0.00,VWS V14.01,2013-07-09 07:52:00,
2013-07-09 03:57:00,66.3,64.8,30.04,ESE,113,0.0,0.0,95,0.00,,---,0.00,VWS V14.01,2013-07-09 07:57:00,
2013-07-09 04:02:00,66.3,64.8,30.04,ESE,113,0.0,0.0,95,0.00,,---,0.00,VWS V14.01,2013-07-09 08:02:00,
2013-07-09 04:07:00,66.3,64.8,30.04,ESE,113,0.0,0.0,95,0.00,,---,0.00,VWS V14.01,2013-07-09 08:07:00,
2013-07-09 04:12:00,66.3,64.8,30.04,ESE,113,0.0,0.0,95,0.00,,---,0.00,VWS V14.01,2013-07-09 08:12:00,
2013-07-09 04:17:00,66.1,64.6,30.04,ESE,113,0.0,0.0,95,0.00,,---,0.00,VWS V14.01,2013-07-09 08:17:00,
2013-07-09 04:22:00,66.1,64.6,30.04,ESE,113,0.0,0.0,95,0.00,,---,0.00,VWS V14.01,2013-07-09 08:22:00,
2013-07-09 04:27:00,66.1,64.6,30.04,ESE,113,0.0,0.0,95,0.00,,---,0.00,VWS V14.01,2013-07-09 08:27:00,
2013-07-09 04:32:00,66.0,64.5,30.04,ESE,113,0.0,0.0,95,0.00,,---,0.00,VWS V14.01,2013-07-09 08:32:00,
2013-07-09 04:37:00,66.0,64.5,30.04,ESE,113,0.0,0.0,95,0.00,,---,0.00,VWS V14.01,2013-07-09 08:37:00,
2013-07-09 04:42:00,65.8,64.3,30.04,ESE,113,0.0,0.0,95,0.00,,---,0.00,VWS V14.01,2013-07-09 08:42:00,
2013-07-09 04:47:00,65.8,64.3,30.04,ESE,113,0.0,0.0,95,0.00,,---,0.00,VWS V14.01,2013-07-09 08:47:00,
2013-07-09 04:52:00,65.8,64.3,30.04,ESE,113,0.0,0.0,95,0.00,,---,0.00,VWS V14.01,2013-07-09 08:52:00,
2013-07-09 04:57:00,65.8,64.3,30.04,ESE,113,0.0,0.0,95,0.00,,---,0.00,VWS V14.01,2013-07-09 08:57:00,
2013-07-09 05:02:00,65.8,64.3,30.04,ESE,113,0.0,0.0,95,0.00,,---,0.00,VWS V14.01,2013-07-09 09:02:00,
2013-07-09 05:07:00,66.0,64.5,30.04,ESE,113,0.0,0.0,95,0.00,,---,0.00,VWS V14.01,2013-07-09 09:07:00,
2013-07-09 05:12:00,66.0,64.5,30.04,ESE,113,0.0,0.0,95,0.00,,---,0.00,VWS V14.01,2013-07-09 09:12:00,
2013-07-09 05:17:00,66.0,64.5,30.04,ESE,113,0.0,0.0,95,0.00,,---,0.00,VWS V14.01,2013-07-09 09:17:00,
2013-07-09 05:22:00,66.0,64.5,30.04,ESE,113,0.0,0.0,95,0.00,,---,0.00,VWS V14.01,2013-07-09 09:22:00,
2013-07-09 05:27:00,66.1,64.6,30.04,ESE,113,0.0,0.0,95,0.00,,---,0.00,VWS V14.01,2013-07-09 09:27:00,
2013-07-09 05:32:00,66.1,64.6,30.04,ESE,113,0.0,0.0,95,0.00,,---,0.00,VWS V14.01,2013-07-09 09:32:00,
2013-07-09 05:37:00,66.1,64.9,30.04,ESE,113,0.0,0.0,96,0.00,,---,0.00,VWS V14.01,2013-07-09 09:37:00,
2013-07-09 05:42:00,66.1,64.9,30.04,ESE,107,0.0,0.0,96,0.00,,---,0.00,VWS V14.01,2013-07-09 09:42:00,
2013-07-09 05:47:00,66.3,65.1,30.04,ESE,113,0.0,0.0,96,0.00,,---,0.00,VWS V14.01,2013-07-09 09:47:00,
2013-07-09 05:52:00,66.3,65.1,30.04,ESE,113,0.0,0.0,96,0.00,,---,0.00,VWS V14.01,2013-07-09 09:52:00,
2013-07-09 05:57:00,66.3,65.1,30.04,ESE,113,0.0,0.0,96,0.00,,---,0.00,VWS V14.01,2013-07-09 09:57:00,
2013-07-09 06:02:00,66.4,65.2,30.04,ESE,113,0.0,0.0,96,0.00,,---,0.00,VWS V14.01,2013-07-09 10:02:00,
2013-07-09 06:07:00,66.4,65.2,30.04,ESE,107,0.0,0.0,96,0.00,,---,0.00,VWS V14.01,2013-07-09 10:07:00,
2013-07-09 06:12:00,66.6,65.4,30.05,ESE,113,0.0,0.0,96,0.00,,---,0.00,VWS V14.01,2013-07-09 10:12:00,
2013-07-09 06:17:00,66.6,65.4,30.05,ESE,113,0.0,0.0,96,0.00,,---,0.00,VWS V14.01,2013-07-09 10:17:00,
2013-07-09 06:22:00,66.6,65.4,30.05,ESE,113,0.0,0.0,96,0.00,,---,0.00,VWS V14.01,2013-07-09 10:22:00,
2013-07-09 06:27:00,66.8,65.6,30.05,ESE,113,0.0,0.0,96,0.00,,---,0.00,VWS V14.01,2013-07-09 10:27:00,
2013-07-09 06:32:00,66.8,65.6,30.05,ESE,113,0.0,0.0,96,0.00,,---,0.00,VWS V14.01,2013-07-09 10:32:00,
2013-07-09 06:37:00,66.8,65.6,30.05,ESE,113,0.0,0.0,96,0.00,,---,0.00,VWS V14.01,2013-07-09 10:37:00,
2013-07-09 06:42:00,66.8,65.6,30.05,ESE,113,0.0,0.0,96,0.00,,---,0.00,VWS V14.01,2013-07-09 10:42:00,
2013-07-09 06:47:00,66.8,65.6,30.05,ESE,113,0.0,0.0,96,0.00,,---,0.00,VWS V14.01,2013-07-09 10:47:00,
2013-07-09 06:52:00,66.8,65.6,30.05,ESE,113,0.0,0.0,96,0.00,,---,0.00,VWS V14.01,2013-07-09 10:52:00,
2013-07-09 06:57:00,66.8,65.6,30.05,ESE,113,0.0,0.0,96,0.00,,---,0.00,VWS V14.01,2013-07-09 10:57:00,
2013-07-09 07:02:00,66.8,65.6,30.05,ESE,113,0.0,0.0,96,0.00,,---,0.00,VWS V14.01,2013-07-09 11:02:00,
2013-07-09 07:07:00,66.8,65.6,30.05,ESE,113,0.0,0.0,96,0.00,,---,0.00,VWS V14.01,2013-07-09 11:07:00,
2013-07-09 07:12:00,66.8,65.6,30.06,ESE,113,0.0,0.0,96,0.00,,---,0.00,VWS V14.01,2013-07-09 11:12:00,
2013-07-09 07:17:00,66.8,65.6,30.06,ESE,113,0.0,0.0,96,0.00,,---,0.00,VWS V14.01,2013-07-09 11:17:00,
2013-07-09 07:22:00,66.8,65.6,30.06,ESE,113,0.0,0.0,96,0.00,,---,0.00,VWS V14.01,2013-07-09 11:22:00,
2013-07-09 07:27:00,66.8,65.6,30.07,ESE,113,0.0,0.0,96,0.00,,---,0.00,VWS V14.01,2013-07-09 11:27:00,
2013-07-09 07:32:00,66.8,65.6,30.07,ESE,113,0.0,0.0,96,0.00,,---,0.00,VWS V14.01,2013-07-09 11:32:00,
2013-07-09 07:37:00,66.8,65.6,30.07,ESE,113,0.0,0.0,96,0.00,,---,0.00,VWS V14.01,2013-07-09 11:37:00,
2013-07-09 07:42:00,66.9,65.7,30.07,ESE,113,0.0,0.0,96,0.00,,---,0.00,VWS V14.01,2013-07-09 11:42:00,
2013-07-09 07:47:00,66.9,65.7,30.07,ESE,113,0.0,0.0,96,0.00,,---,0.00,VWS V14.01,2013-07-09 11:47:00,
2013-07-09 07:52:00,67.1,65.9,30.07,ESE,113,0.0,0.0,96,0.00,,---,0.00,VWS V14.01,2013-07-09 11:52:00,
2013-07-09 07:57:00,67.3,66.1,30.07,ESE,113,0.0,0.0,96,0.00,,---,0.00,VWS V14.01,2013-07-09 11:57:00,
2013-07-09 08:02:00,67.3,66.1,30.07,ESE,113,0.0,1.0,96,0.00,,---,0.00,VWS V14.01,2013-07-09 12:02:00,
2013-07-09 08:07:00,67.3,66.1,30.07,ESE,113,0.0,1.0,96,0.00,,---,0.00,VWS V14.01,2013-07-09 12:07:00,
2013-07-09 08:12:00,67.3,66.1,30.08,ESE,113,0.0,0.0,96,0.00,,---,0.00,VWS V14.01,2013-07-09 12:12:00,
2013-07-09 08:17:00,67.3,66.1,30.08,ESE,113,0.0,0.0,96,0.00,,---,0.00,VWS V14.01,2013-07-09 12:17:00,
2013-07-09 08:22:00,67.4,66.2,30.08,ESE,113,0.0,0.0,96,0.00,,---,0.00,VWS V14.01,2013-07-09 12:22:00,
2013-07-09 08:27:00,67.4,66.2,30.08,ESE,113,0.0,0.0,96,0.00,,---,0.00,VWS V14.01,2013-07-09 12:27:00,
2013-07-09 08:32:00,67.4,66.2,30.08,ESE,113,0.0,0.0,96,0.00,,---,0.00,VWS V14.01,2013-07-09 12:32:00,
2013-07-09 08:37:00,67.4,66.2,30.08,ESE,113,0.0,0.0,96,0.00,,---,0.00,VWS V14.01,2013-07-09 12:37:00,
2013-07-09 08:42:00,67.4,66.2,30.08,ESE,113,0.0,0.0,96,0.00,,---,0.00,VWS V14.01,2013-07-09 12:42:00,
2013-07-09 08:47:00,67.6,66.4,30.08,East,100,0.0,0.0,96,0.00,,---,0.00,VWS V14.01,2013-07-09 12:47:00,
2013-07-09 08:52:00,67.8,66.6,30.08,East,100,0.0,0.0,96,0.00,,---,0.00,VWS V14.01,2013-07-09 12:52:00,
2013-07-09 08:57:00,67.8,66.6,30.08,East,101,0.0,0.0,96,0.00,,---,0.00,VWS V14.01,2013-07-09 12:57:00,
2013-07-09 09:02:00,67.9,66.7,30.08,East,101,0.0,0.0,96,0.00,,---,0.00,VWS V14.01,2013-07-09 13:02:00,
2013-07-09 09:07:00,68.3,67.1,30.08,East,101,0.0,0.0,96,0.00,,---,0.00,VWS V14.01,2013-07-09 13:07:00,
2013-07-09 09:12:00,68.9,67.7,30.08,East,101,0.0,0.0,96,0.00,,---,0.00,VWS V14.01,2013-07-09 13:12:00,
2013-07-09 09:17:00,69.1,67.9,30.08,East,101,0.0,0.0,96,0.00,,---,0.00,VWS V14.01,2013-07-09 13:17:00,
2013-07-09 09:22:00,69.6,68.4,30.08,East,101,0.0,1.0,96,0.00,,---,0.00,VWS V14.01,2013-07-09 13:22:00,
2013-07-09 09:27:00,69.9,68.7,30.08,East,101,0.0,0.0,96,0.00,,---,0.00,VWS V14.01,2013-07-09 13:27:00,
2013-07-09 09:32:00,70.4,69.2,30.08,East,101,0.0,0.0,96,0.00,,---,0.00,VWS V14.01,2013-07-09 13:32:00,
2013-07-09 09:37:00,70.9,69.7,30.08,ESE,104,0.0,0.0,96,0.00,,---,0.00,VWS V14.01,2013-07-09 13:37:00,
2013-07-09 09:42:00,71.3,69.8,30.08,ENE,58,0.0,0.0,95,0.00,,---,0.00,VWS V14.01,2013-07-09 13:42:00,
2013-07-09 09:47:00,71.8,70.3,30.08,NE,42,0.0,0.0,95,0.00,,---,0.00,VWS V14.01,2013-07-09 13:47:00,
2013-07-09 09:52:00,72.1,70.6,30.08,NE,42,0.0,0.0,95,0.00,,---,0.00,VWS V14.01,2013-07-09 13:52:00,
2013-07-09 09:57:00,72.8,71.3,30.07,NE,35,0.0,0.0,95,0.00,,---,0.00,VWS V14.01,2013-07-09 13:57:00,
2013-07-09 10:02:00,73.5,71.4,30.07,NE,35,0.0,0.0,93,0.00,,---,0.00,VWS V14.01,2013-07-09 14:02:00,
2013-07-09 10:07:00,74.0,71.8,30.07,NE,35,0.0,0.0,93,0.00,,---,0.00,VWS V14.01,2013-07-09 14:07:00,
2013-07-09 10:12:00,74.7,70.6,30.07,NE,35,0.0,0.0,87,0.00,,---,0.00,VWS V14.01,2013-07-09 14:12:00,
2013-07-09 10:17:00,75.6,70.4,30.07,NE,35,0.0,0.0,84,0.00,,---,0.00,VWS V14.01,2013-07-09 14:17:00,
2013-07-09 10:22:00,76.0,69.8,30.07,NE,35,0.0,0.0,81,0.00,,---,0.00,VWS V14.01,2013-07-09 14:22:00,
2013-07-09 10:27:00,76.8,69.8,30.06,NE,36,0.0,0.0,79,0.00,,---,0.00,VWS V14.01,2013-07-09 14:27:00,
2013-07-09 10:32:00,77.4,70.4,30.06,NE,36,0.0,0.0,79,0.00,,---,0.00,VWS V14.01,2013-07-09 14:32:00,
2013-07-09 10:37:00,78.1,69.9,30.06,NE,36,0.0,0.0,76,0.00,,---,0.00,VWS V14.01,2013-07-09 14:37:00,
2013-07-09 10:42:00,78.8,70.2,30.06,NE,36,0.0,0.0,75,0.00,,---,0.00,VWS V14.01,2013-07-09 14:42:00,
2013-07-09 10:47:00,79.2,69.8,30.06,NE,36,0.0,0.0,73,0.00,,---,0.00,VWS V14.01,2013-07-09 14:47:00,
2013-07-09 10:52:00,79.2,69.4,30.06,NE,36,0.0,0.0,72,0.00,,---,0.00,VWS V14.01,2013-07-09 14:52:00,
2013-07-09 10:57:00,79.2,69.8,30.07,NE,36,0.0,0.0,73,0.00,,---,0.00,VWS V14.01,2013-07-09 14:57:00,
2013-07-09 11:02:00,79.2,70.2,30.07,NNW,340,0.0,0.0,74,0.00,,---,0.00,VWS V14.01,2013-07-09 15:02:00,
2013-07-09 11:07:00,79.2,69.8,30.07,NNW,340,0.0,0.0,73,0.00,,---,0.00,VWS V14.01,2013-07-09 15:07:00,
2013-07-09 11:12:00,79.6,70.6,30.08,ESE,108,0.0,0.0,74,0.00,,---,0.00,VWS V14.01,2013-07-09 15:12:00,
2013-07-09 11:17:00,79.6,70.2,30.08,ESE,108,0.0,0.0,73,0.00,,---,0.00,VWS V14.01,2013-07-09 15:17:00,
2013-07-09 11:22:00,79.6,69.8,30.08,ESE,108,0.0,0.0,72,0.00,,---,0.00,VWS V14.01,2013-07-09 15:22:00,
2013-07-09 11:27:00,79.6,69.8,30.08,ESE,108,0.0,0.0,72,0.00,,---,0.00,VWS V14.01,2013-07-09 15:27:00,
2013-07-09 11:32:00,79.9,70.1,30.08,ESE,108,0.0,0.0,72,0.00,,---,0.00,VWS V14.01,2013-07-09 15:32:00,
2013-07-09 11:37:00,80.7,70.8,30.08,ESE,108,0.0,0.0,72,0.00,,---,0.00,VWS V14.01,2013-07-09 15:37:00,
2013-07-09 11:42:00,80.9,70.2,30.08,ESE,108,0.0,0.0,70,0.00,,---,0.00,VWS V14.01,2013-07-09 15:42:00,
2013-07-09 11:47:00,81.2,70.5,30.08,ESE,108,0.0,0.0,70,0.00,,---,0.00,VWS V14.01,2013-07-09 15:47:00,
2013-07-09 11:52:00,81.4,70.3,30.08,ESE,108,0.0,0.0,69,0.00,,---,0.00,VWS V14.01,2013-07-09 15:52:00,
2013-07-09 11:57:00,81.6,70.0,30.07,East,97,0.0,0.0,68,0.00,,---,0.00,VWS V14.01,2013-07-09 15:57:00,
2013-07-09 12:02:00,82.2,71.0,30.07,East,97,0.0,0.0,69,0.00,,---,0.00,VWS V14.01,2013-07-09 16:02:00,
2013-07-09 12:07:00,83.0,72.2,30.07,East,97,0.0,0.0,70,0.00,,---,0.00,VWS V14.01,2013-07-09 16:07:00,
2013-07-09 12:12:00,83.0,70.0,30.07,East,97,0.0,0.0,65,0.00,,---,0.00,VWS V14.01,2013-07-09 16:12:00,
2013-07-09 12:17:00,83.8,72.1,30.07,East,97,0.0,0.0,68,0.00,,---,0.00,VWS V14.01,2013-07-09 16:17:00,
2013-07-09 12:22:00,84.1,70.6,30.07,East,98,0.0,0.0,64,0.00,,---,0.00,VWS V14.01,2013-07-09 16:22:00,
2013-07-09 12:27:00,84.3,69.9,30.06,East,98,0.0,0.0,62,0.00,,---,0.00,VWS V14.01,2013-07-09 16:27:00,
2013-07-09 12:32:00,84.7,70.7,30.06,ESE,104,0.0,0.0,63,0.00,,---,0.00,VWS V14.01,2013-07-09 16:32:00,
2013-07-09 12:37:00,84.7,71.2,30.06,ENE,62,0.0,0.0,64,0.00,,---,0.00,VWS V14.01,2013-07-09 16:37:00,
2013-07-09 12:42:00,84.7,71.2,30.07,ENE,62,0.0,0.0,64,0.00,,---,0.00,VWS V14.01,2013-07-09 16:42:00,
2013-07-09 12:47:00,84.5,69.1,30.07,ESE,103,0.0,0.0,60,0.00,,---,0.00,VWS V14.01,2013-07-09 16:47:00,
2013-07-09 12:52:00,84.9,72.3,30.07,ESE,103,0.0,0.0,66,0.00,,---,0.00,VWS V14.01,2013-07-09 16:52:00,
2013-07-09 12:57:00,85.3,71.8,30.06,ESE,103,0.0,0.0,64,0.00,,---,0.00,VWS V14.01,2013-07-09 16:57:00,
2013-07-09 13:02:00,84.9,70.4,30.06,ESE,103,0.0,0.0,62,0.00,,---,0.00,VWS V14.01,2013-07-09 17:02:00,
2013-07-09 13:07:00,84.9,70.4,30.06,ESE,103,0.0,0.0,62,0.00,,---,0.00,VWS V14.01,2013-07-09 17:07:00,
2013-07-09 13:12:00,84.3,70.3,30.06,East,101,0.0,0.0,63,0.00,,---,0.00,VWS V14.01,2013-07-09 17:12:00,
2013-07-09 13:17:00,84.0,71.0,30.06,East,97,0.0,0.0,65,0.00,,---,0.00,VWS V14.01,2013-07-09 17:17:00,
2013-07-09 13:22:00,83.6,71.5,30.06,East,97,0.0,0.0,67,0.00,,---,0.00,VWS V14.01,2013-07-09 17:22:00,
2013-07-09 13:27:00,83.4,71.7,30.06,East,97,0.0,0.0,68,0.00,,---,0.00,VWS V14.01,2013-07-09 17:27:00,
2013-07-09 13:32:00,83.0,70.9,30.06,East,97,0.0,0.0,67,0.00,,---,0.00,VWS V14.01,2013-07-09 17:32:00,
2013-07-09 13:37:00,82.6,70.1,30.06,North,351,0.0,0.0,66,0.00,,---,0.00,VWS V14.01,2013-07-09 17:37:00,
2013-07-09 13:42:00,82.4,69.9,30.05,North,351,0.0,0.0,66,0.00,,---,0.00,VWS V14.01,2013-07-09 17:42:00,
2013-07-09 13:47:00,82.0,68.2,30.05,East,80,0.0,0.0,63,0.00,,---,0.00,VWS V14.01,2013-07-09 17:47:00,
2013-07-09 13:52:00,82.0,70.4,30.05,East,80,0.0,0.0,68,0.00,,---,0.00,VWS V14.01,2013-07-09 17:52:00,
2013-07-09 13:57:00,81.6,68.7,30.05,East,80,0.0,0.0,65,0.00,,---,0.00,VWS V14.01,2013-07-09 17:57:00,
2013-07-09 14:02:00,81.2,68.3,30.05,East,80,0.0,0.0,65,0.00,,---,0.00,VWS V14.01,2013-07-09 18:02:00,
2013-07-09 14:07:00,80.7,69.6,30.05,East,80,0.0,0.0,69,0.00,,---,0.00,VWS V14.01,2013-07-09 18:07:00,
2013-07-09 14:12:00,80.1,70.3,30.05,East,80,0.0,0.0,72,0.00,,---,0.00,VWS V14.01,2013-07-09 18:12:00,
2013-07-09 14:17:00,79.8,70.8,30.05,East,80,0.0,0.0,74,0.00,,---,0.00,VWS V14.01,2013-07-09 18:17:00,
2013-07-09 14:22:00,79.4,70.8,30.05,East,80,0.0,0.0,75,0.00,,---,0.00,VWS V14.01,2013-07-09 18:22:00,
2013-07-09 14:27:00,79.0,70.8,30.06,East,80,0.0,0.0,76,0.00,,---,0.00,VWS V14.01,2013-07-09 18:27:00,
2013-07-09 14:32:00,78.6,70.8,30.06,East,80,0.0,0.0,77,0.00,,---,0.00,VWS V14.01,2013-07-09 18:32:00,
2013-07-09 14:37:00,78.3,70.5,30.06,SE,142,0.0,0.0,77,0.00,,---,0.00,VWS V14.01,2013-07-09 18:37:00,
2013-07-09 14:42:00,77.9,70.1,30.05,SE,142,0.0,0.0,77,0.00,,---,0.00,VWS V14.01,2013-07-09 18:42:00,
2013-07-09 14:47:00,77.9,70.5,30.05,SE,142,0.0,0.0,78,0.00,,---,0.00,VWS V14.01,2013-07-09 18:47:00,
2013-07-09 14:52:00,78.5,71.8,30.05,SE,142,0.0,0.0,80,0.00,,---,0.00,VWS V14.01,2013-07-09 18:52:00,
2013-07-09 14:57:00,78.6,71.2,30.05,SE,141,0.0,0.0,78,0.00,,---,0.00,VWS V14.01,2013-07-09 18:57:00,
2013-07-09 15:02:00,78.8,70.6,30.05,SE,141,0.0,0.0,76,0.00,,---,0.00,VWS V14.01,2013-07-09 19:02:00,
2013-07-09 15:07:00,79.0,70.4,30.05,SE,141,0.0,0.0,75,0.00,,---,0.00,VWS V14.01,2013-07-09 19:07:00,
2013-07-09 15:12:00,79.8,71.9,30.04,SE,141,0.0,0.0,77,0.00,,---,0.00,VWS V14.01,2013-07-09 19:12:00,
2013-07-09 15:17:00,80.5,72.2,30.04,SE,141,0.0,0.0,76,0.00,,---,0.00,VWS V14.01,2013-07-09 19:17:00,
2013-07-09 15:22:00,80.7,70.4,30.04,SE,135,0.0,0.0,71,0.00,,---,0.00,VWS V14.01,2013-07-09 19:22:00,
2013-07-09 15:27:00,81.4,71.1,30.03,East,90,0.0,0.0,71,0.00,,---,0.00,VWS V14.01,2013-07-09 19:27:00,
2013-07-09 15:32:00,82.0,71.7,30.03,East,89,0.0,0.0,71,0.00,,---,0.00,VWS V14.01,2013-07-09 19:32:00,
2013-07-09 15:37:00,83.0,72.2,30.03,East,89,0.0,0.0,70,0.00,,---,0.00,VWS V14.01,2013-07-09 19:37:00,
2013-07-09 15:42:00,83.8,73.0,30.01,East,89,0.0,0.0,70,0.00,,---,0.00,VWS V14.01,2013-07-09 19:42:00,
2013-07-09 15:47:00,84.1,72.8,30.01,East,89,0.0,0.0,69,0.00,,---,0.00,VWS V14.01,2013-07-09 19:47:00,
2013-07-09 15:52:00,84.7,72.5,30.01,East,89,0.0,0.0,67,0.00,,---,0.00,VWS V14.01,2013-07-09 19:52:00,
2013-07-09 15:57:00,84.5,70.5,30.01,East,89,0.0,0.0,63,0.00,,---,0.00,VWS V14.01,2013-07-09 19:57:00,
2013-07-09 16:02:00,84.3,70.8,30.01,East,89,0.0,0.0,64,0.00,,---,0.00,VWS V14.01,2013-07-09 20:02:00,
2013-07-09 16:07:00,84.0,71.0,30.01,East,89,0.0,0.0,65,0.00,,---,0.00,VWS V14.01,2013-07-09 20:07:00,
2013-07-09 16:12:00,83.4,71.3,30.00,East,89,0.0,0.0,67,0.00,,---,0.00,VWS V14.01,2013-07-09 20:12:00,
2013-07-09 16:17:00,83.2,71.1,30.00,East,89,0.0,0.0,67,0.00,,---,0.00,VWS V14.01,2013-07-09 20:17:00,
2013-07-09 16:22:00,82.8,70.3,30.00,East,89,0.0,0.0,66,0.00,,---,0.00,VWS V14.01,2013-07-09 20:22:00,
2013-07-09 16:27:00,82.6,71.0,30.00,East,89,0.0,0.0,68,0.00,,---,0.00,VWS V14.01,2013-07-09 20:27:00,
2013-07-09 16:32:00,82.4,70.8,30.00,East,89,0.0,0.0,68,0.00,,---,0.00,VWS V14.01,2013-07-09 20:32:00,
2013-07-09 16:37:00,81.8,70.2,30.00,East,89,0.0,0.0,68,0.00,,---,0.00,VWS V14.01,2013-07-09 20:37:00,
2013-07-09 16:42:00,81.1,70.0,30.00,East,94,0.0,0.0,69,0.00,,---,0.00,VWS V14.01,2013-07-09 20:42:00,
2013-07-09 16:47:00,81.6,70.4,30.00,East,94,0.0,0.0,69,0.00,,---,0.00,VWS V14.01,2013-07-09 20:47:00,
2013-07-09 16:52:00,81.4,70.7,30.00,ESE,108,0.0,0.0,70,0.00,,---,0.00,VWS V14.01,2013-07-09 20:52:00,
2013-07-09 16:57:00,81.4,70.3,30.00,ESE,108,0.0,0.0,69,0.00,,---,0.00,VWS V14.01,2013-07-09 20:57:00,
2013-07-09 17:02:00,81.6,71.3,30.00,ESE,108,0.0,0.0,71,0.00,,---,0.00,VWS V14.01,2013-07-09 21:02:00,
2013-07-09 17:07:00,81.4,70.3,30.00,ESE,108,0.0,0.0,69,0.00,,---,0.00,VWS V14.01,2013-07-09 21:07:00,
2013-07-09 17:12:00,81.4,70.3,29.99,ESE,108,0.0,0.0,69,0.00,,---,0.00,VWS V14.01,2013-07-09 21:12:00,
2013-07-09 17:17:00,81.4,70.3,29.99,ESE,108,0.0,0.0,69,0.00,,---,0.00,VWS V14.01,2013-07-09 21:17:00,
2013-07-09 17:22:00,81.2,70.1,29.99,ESE,103,0.0,0.0,69,0.00,,---,0.00,VWS V14.01,2013-07-09 21:22:00,
2013-07-09 17:27:00,81.1,70.0,29.98,ESE,103,0.0,0.0,69,0.00,,---,0.00,VWS V14.01,2013-07-09 21:27:00,
2013-07-09 17:32:00,81.1,68.7,29.98,ESE,103,0.0,0.0,66,0.00,,---,0.00,VWS V14.01,2013-07-09 21:32:00,
2013-07-09 17:37:00,81.1,68.7,29.98,ESE,103,0.0,0.0,66,0.00,,---,0.00,VWS V14.01,2013-07-09 21:37:00,
2013-07-09 17:42:00,81.1,68.7,29.98,ESE,103,0.0,0.0,66,0.00,,---,0.00,VWS V14.01,2013-07-09 21:42:00,
2013-07-09 17:47:00,79.8,69.6,29.98,ESE,103,0.0,0.0,71,0.00,,---,0.00,VWS V14.01,2013-07-09 21:47:00,
2013-07-09 17:52:00,79.8,68.3,29.98,ESE,103,0.0,0.0,68,0.00,,---,0.00,VWS V14.01,2013-07-09 21:52:00,
2013-07-09 17:57:00,79.8,68.3,29.98,ESE,103,0.0,0.0,68,0.00,,---,0.00,VWS V14.01,2013-07-09 21:57:00,
2013-07-09 18:02:00,79.8,68.3,29.98,West,261,0.0,0.0,68,0.00,,---,0.00,VWS V14.01,2013-07-09 22:02:00,
2013-07-09 18:07:00,78.8,67.4,29.98,West,261,0.0,0.0,68,0.00,,---,0.00,VWS V14.01,2013-07-09 22:07:00,
2013-07-09 18:12:00,78.8,67.4,29.99,West,261,0.0,0.0,68,0.00,,---,0.00,VWS V14.01,2013-07-09 22:12:00,
2013-07-09 18:17:00,78.8,67.4,29.99,West,261,0.0,0.0,68,0.00,,---,0.00,VWS V14.01,2013-07-09 22:17:00,
2013-07-09 18:22:00,78.8,67.4,29.99,West,261,0.0,0.0,68,0.00,,---,0.00,VWS V14.01,2013-07-09 22:22:00,
2013-07-09 18:27:00,78.8,67.4,30.03,West,261,0.0,0.0,68,0.00,,---,0.00,VWS V14.01,2013-07-09 22:27:00,
2013-07-09 18:32:00,78.8,67.4,30.03,West,261,0.0,0.0,68,0.00,,---,0.00,VWS V14.01,2013-07-09 22:32:00,
2013-07-09 18:37:00,77.4,66.0,30.03,West,261,0.0,0.0,68,0.00,,---,0.00,VWS V14.01,2013-07-09 22:37:00,
2013-07-09 18:42:00,77.4,66.0,30.01,West,261,0.0,0.0,68,0.00,,---,0.00,VWS V14.01,2013-07-09 22:42:00,
2013-07-09 18:47:00,76.8,65.4,30.01,West,261,0.0,0.0,68,0.00,,---,0.00,VWS V14.01,2013-07-09 22:47:00,
2013-07-09 18:52:00,76.8,65.4,30.01,West,261,0.0,0.0,68,0.00,,---,0.00,VWS V14.01,2013-07-09 22:52:00,
2013-07-09 18:57:00,76.8,65.4,30.01,West,261,0.0,0.0,68,0.00,,---,0.00,VWS V14.01,2013-07-09 22:57:00,
2013-07-09 19:02:00,76.8,65.4,30.01,West,261,0.0,0.0,68,0.00,,---,0.00,VWS V14.01,2013-07-09 23:02:00,
2013-07-09 19:07:00,76.8,65.4,30.01,West,261,0.0,0.0,68,0.00,,---,0.00,VWS V14.01,2013-07-09 23:07:00,
2013-07-09 19:12:00,76.8,65.4,30.04,West,261,0.0,0.0,68,0.00,,---,0.00,VWS V14.01,2013-07-09 23:12:00,
2013-07-09 19:17:00,76.8,65.4,30.04,West,261,0.0,0.0,68,0.00,,---,0.00,VWS V14.01,2013-07-09 23:17:00,
2013-07-09 19:22:00,76.8,65.4,30.04,West,261,0.0,0.0,68,0.00,,---,0.00,VWS V14.01,2013-07-09 23:22:00,
2013-07-09 19:27:00,76.8,65.4,30.04,West,261,0.0,0.0,68,0.00,,---,0.00,VWS V14.01,2013-07-09 23:27:00,
2013-07-09 19:32:00,76.8,65.4,30.04,West,261,0.0,0.0,68,0.00,,---,0.00,VWS V14.01,2013-07-09 23:32:00,
2013-07-09 19:37:00,76.8,65.4,30.04,West,261,0.0,0.0,68,0.00,,---,0.00,VWS V14.01,2013-07-09 23:37:00,
2013-07-09 19:42:00,74.9,63.6,30.03,West,261,0.0,0.0,68,0.00,,---,0.00,VWS V14.01,2013-07-09 23:42:00,
2013-07-09 19:47:00,74.9,63.6,30.03,West,261,0.0,0.0,68,0.00,,---,0.00,VWS V14.01,2013-07-09 23:47:00,
2013-07-09 19:52:00,74.6,69.8,30.03,West,261,0.0,1.0,85,0.00,,---,0.00,VWS V14.01,2013-07-09 23:52:00,
2013-07-09 19:57:00,74.2,69.1,30.02,West,259,0.0,1.0,84,0.00,,---,0.00,VWS V14.01,2013-07-09 23:57:00,
2013-07-09 20:02:00,73.7,67.9,30.02,SW,214,2.0,5.0,82,0.00,,---,0.00,VWS V14.01,2013-07-10 00:02:00,
2013-07-09 20:07:00,73.0,66.5,30.02,SW,214,0.0,1.0,80,0.00,,---,0.00,VWS V14.01,2013-07-10 00:07:00,
2013-07-09 20:12:00,72.8,65.9,30.03,SW,214,0.0,0.0,79,0.00,,---,0.00,VWS V14.01,2013-07-10 00:12:00,
2013-07-09 20:17:00,72.5,66.0,30.03,SW,214,0.0,0.0,80,0.00,,---,0.00,VWS V14.01,2013-07-10 00:17:00,
2013-07-09 20:22:00,72.1,65.6,30.03,SW,214,0.0,0.0,80,0.00,,---,0.00,VWS V14.01,2013-07-10 00:22:00,
2013-07-09 20:27:00,72.1,65.6,30.03,SW,214,0.0,0.0,80,0.00,,---,0.00,VWS V14.01,2013-07-10 00:27:00,
2013-07-09 20:32:00,71.3,64.8,30.03,SW,214,0.0,0.0,80,0.00,,---,0.00,VWS V14.01,2013-07-10 00:32:00,
2013-07-09 20:37:00,71.3,64.8,30.03,SW,214,0.0,0.0,80,0.00,,---,0.00,VWS V14.01,2013-07-10 00:37:00,
2013-07-09 20:42:00,71.3,64.8,30.03,SW,214,0.0,0.0,80,0.00,,---,0.00,VWS V14.01,2013-07-10 00:42:00,
2013-07-09 20:47:00,70.3,63.8,30.03,SW,214,0.0,0.0,80,0.00,,---,0.00,VWS V14.01,2013-07-10 00:47:00,
2013-07-09 20:52:00,69.9,63.5,30.03,SW,214,0.0,0.0,80,0.00,,---,0.00,VWS V14.01,2013-07-10 00:52:00,
2013-07-09 20:57:00,69.6,65.2,30.03,SW,214,0.0,0.0,86,0.00,,---,0.00,VWS V14.01,2013-07-10 00:57:00,
2013-07-09 21:02:00,69.4,65.4,30.03,SW,214,0.0,0.0,87,0.00,,---,0.00,VWS V14.01,2013-07-10 01:02:00,
2013-07-09 21:07:00,69.3,65.6,30.03,SW,220,0.0,0.0,88,0.00,,---,0.00,VWS V14.01,2013-07-10 01:07:00,
2013-07-09 21:12:00,69.1,65.4,30.02,WSW,247,0.0,0.0,88,0.00,,---,0.00,VWS V14.01,2013-07-10 01:12:00,
2013-07-09 21:17:00,69.1,65.4,30.02,WSW,247,0.0,0.0,88,0.00,,---,0.00,VWS V14.01,2013-07-10 01:17:00,
2013-07-09 21:22:00,68.8,65.1,30.02,WSW,247,0.0,0.0,88,0.00,,---,0.00,VWS V14.01,2013-07-10 01:22:00,
2013-07-09 21:27:00,68.8,65.8,30.02,WSW,247,0.0,0.0,90,0.00,,---,0.00,VWS V14.01,2013-07-10 01:27:00,
2013-07-09 21:32:00,68.8,65.8,30.02,WSW,247,0.0,0.0,90,0.00,,---,0.00,VWS V14.01,2013-07-10 01:32:00,
2013-07-09 21:37:00,68.6,65.6,30.02,WSW,247,0.0,0.0,90,0.00,,---,0.00,VWS V14.01,2013-07-10 01:37:00,
2013-07-09 21:42:00,68.6,65.6,30.02,WSW,247,0.0,0.0,90,0.00,,---,0.00,VWS V14.01,2013-07-10 01:42:00,
2013-07-09 21:47:00,68.4,65.4,30.02,WSW,247,0.0,0.0,90,0.00,,---,0.00,VWS V14.01,2013-07-10 01:47:00,
2013-07-09 21:52:00,68.4,65.7,30.02,WSW,247,0.0,0.0,91,0.00,,---,0.00,VWS V14.01,2013-07-10 01:52:00,
2013-07-09 21:57:00,68.4,65.7,30.04,WSW,247,0.0,0.0,91,0.00,,---,0.00,VWS V14.01,2013-07-10 01:57:00,
2013-07-09 22:02:00,68.3,65.6,30.04,WSW,247,0.0,0.0,91,0.00,,---,0.00,VWS V14.01,2013-07-10 02:02:00,
2013-07-09 22:07:00,68.3,65.9,30.04,WSW,247,0.0,0.0,92,0.00,,---,0.00,VWS V14.01,2013-07-10 02:07:00,
2013-07-09 22:12:00,68.1,65.7,30.04,WSW,247,0.0,0.0,92,0.00,,---,0.00,VWS V14.01,2013-07-10 02:12:00,
2013-07-09 22:17:00,68.1,65.7,30.04,WSW,247,0.0,0.0,92,0.00,,---,0.00,VWS V14.01,2013-07-10 02:17:00,
2013-07-09 22:22:00,68.1,65.7,30.04,WSW,247,0.0,0.0,92,0.00,,---,0.00,VWS V14.01,2013-07-10 02:22:00,
2013-07-09 22:27:00,68.3,65.9,30.03,WSW,247,0.0,0.0,92,0.00,,---,0.00,VWS V14.01,2013-07-10 02:27:00,
2013-07-09 22:32:00,68.1,65.7,30.03,WSW,247,0.0,0.0,92,0.00,,---,0.00,VWS V14.01,2013-07-10 02:32:00,
2013-07-09 22:37:00,68.1,65.7,30.03,WSW,247,0.0,0.0,92,0.00,,---,0.00,VWS V14.01,2013-07-10 02:37:00,
2013-07-09 22:42:00,67.9,65.5,30.02,WSW,247,0.0,0.0,92,0.00,,---,0.00,VWS V14.01,2013-07-10 02:42:00,
2013-07-09 22:47:00,67.9,65.8,30.02,WSW,247,0.0,0.0,93,0.00,,---,0.00,VWS V14.01,2013-07-10 02:47:00,
2013-07-09 22:52:00,67.9,65.8,30.02,WSW,247,0.0,0.0,93,0.00,,---,0.00,VWS V14.01,2013-07-10 02:52:00,
2013-07-09 22:57:00,67.9,65.8,30.02,WSW,247,0.0,0.0,93,0.00,,---,0.00,VWS V14.01,2013-07-10 02:57:00,
2013-07-09 23:02:00,67.8,65.7,30.02,WSW,247,0.0,0.0,93,0.00,,---,0.00,VWS V14.01,2013-07-10 03:02:00,
2013-07-09 23:07:00,67.8,65.7,30.02,WSW,247,0.0,0.0,93,0.00,,---,0.00,VWS V14.01,2013-07-10 03:07:00,
2013-07-09 23:12:00,67.8,65.7,30.02,WSW,247,0.0,0.0,93,0.00,,---,0.00,VWS V14.01,2013-07-10 03:12:00,
2013-07-09 23:17:00,67.8,65.7,30.02,WSW,247,0.0,0.0,93,0.00,,---,0.00,VWS V14.01,2013-07-10 03:17:00,
2013-07-09 23:22:00,67.8,65.7,30.02,WSW,247,0.0,0.0,93,0.00,,---,0.00,VWS V14.01,2013-07-10 03:22:00,
2013-07-09 23:27:00,67.9,66.1,30.03,WSW,247,0.0,0.0,94,0.00,,---,0.00,VWS V14.01,2013-07-10 03:27:00,
2013-07-09 23:32:00,67.9,66.1,30.03,WSW,247,0.0,0.0,94,0.00,,---,0.00,VWS V14.01,2013-07-10 03:32:00,
2013-07-09 23:37:00,67.9,66.1,30.03,WSW,247,0.0,0.0,94,0.00,,---,0.00,VWS V14.01,2013-07-10 03:37:00,
2013-07-09 23:42:00,68.1,66.3,30.03,WSW,247,0.0,1.0,94,0.00,,---,0.00,VWS V14.01,2013-07-10 03:42:00,
2013-07-09 23:47:00,68.1,66.3,30.03,WSW,247,0.0,2.0,94,0.00,,---,0.00,VWS V14.01,2013-07-10 03:47:00,
2013-07-09 23:52:00,68.1,66.3,30.03,WSW,247,0.0,0.0,94,0.00,,---,0.00,VWS V14.01,2013-07-10 03:52:00,
2013-07-09 23:57:00,68.1,66.3,30.04,WSW,247,0.0,0.0,94,0.00,,---,0.00,VWS V14.01,2013-07-10 03:57:00,